This demonstration page uses our WeatherBlox Daily Observations layout. Learn more.

Left ArrowRight Arrow

39.01783, -85.05884

Hourly Observations for July 25, 2018

Temp ( °F °C ) Dew Point ( °F °C ) Humidity (%) Winds ( mph kmh ) Pressure ( in mb ) Visibility ( mi km ) Precip ( " mm )
12:52 am 00:52 Clear 68 20 67 19.4 96 96 WSW 3 6 29.96 1015 10 16 0.00 0.00
1:52 am 01:52 Mostly Clear 66 18.9 65 18.3 96 96 Calm 29.96 1015 10 16 0.00 0.00
2:52 am 02:52 Partly Cloudy 65 18.3 65 18.3 100 100 Calm 29.95 1014 9 14 0.00 0.00
3:52 am 03:52 Mostly Clear 67 19.4 67 19.4 100 100 W 5 7 29.94 1014 10 16 0.00 0.00
4:52 am 04:52 Mostly Clear 66 18.9 66 18.9 100 100 W 6 9 29.94 1014 9 14 0.00 0.00
5:52 am 05:52 Mostly Clear 69 20.6 67 19.4 93 93 WNW 6 9 29.94 1014 10 16 0.00 0.00
6:52 am 06:52 Mostly Sunny 68 20 66 18.9 93 93 NW 8 13 29.95 1014 10 16 0.00 0.00
7:52 am 07:52 Mostly Sunny 70 21.1 67 19.4 90 90 N 5 7 29.96 1015 10 16 0.00 0.00
8:52 am 08:52 Sunny 73 22.8 67 19.4 81 81 NNW 7 11 29.97 1015 10 16 0.00 0.00
9:52 am 09:52 Mostly Sunny 75 23.9 66 18.9 74 74 N 8 13 29.98 1015 10 16 0.00 0.00
10:52 am 10:52 Sunny 78 25.6 64 17.8 62 62 NNW 8 13 29.98 1015 10 16 0.00 0.00
11:52 am 11:52 Mostly Sunny 81 27.2 65 18.3 58 58 N 7 11 29.98 1015 10 16 0.00 0.00
12:52 pm 12:52 Mostly Sunny 83 28.3 65 18.3 55 55 WNW 10 17 29.97 1015 10 16 0.00 0.00
1:52 pm 13:52 Partly Cloudy 85 29.4 66 18.9 53 53 NNW 9 15 29.96 1015 10 16 0.00 0.00
2:52 pm 14:52 Partly Cloudy 85 29.4 64 17.8 50 50 WNW 9 15 29.95 1014 10 16 0.00 0.00
3:52 pm 15:52 Partly Cloudy 86 30 63 17.2 46 46 NNW 13 20 29.94 1014 10 16 0.00 0.00
4:52 pm 16:52 Mostly Sunny 87 30.6 62 16.7 43 43 NNW 12 19 29.93 1013 10 16 0.00 0.00
5:52 pm 17:52 Mostly Sunny 86 30 60 15.6 42 42 NNW 10 17 29.91 1013 10 16 0.00 0.00
6:52 pm 18:52 Mostly Sunny 86 30 62 16.7 45 45 N 8 13 29.91 1013 10 16 0.00 0.00
7:52 pm 19:52 Mostly Sunny 83 28.3 63 17.2 51 51 N 7 11 29.91 1013 10 16 0.00 0.00
8:52 pm 20:52 Partly Cloudy 80 26.7 63 17.2 56 56 VRB 5 7 29.93 1013 10 16 0.00 0.00
9:52 pm 21:52 Partly Cloudy 74 23.3 65 18.3 74 74 W 6 9 29.94 1014 10 16 0.00 0.00
10:52 pm 22:52 Mostly Clear 75 23.9 66 18.9 74 74 WNW 7 11 29.95 1014 10 16 0.00 0.00
11:52 pm 23:52 Mostly Clear 70 21.1 66 18.9 87 87 WNW 5 7 29.94 1014 10 16 0.00 0.00

Powered by AerisWeather